Time,TemperatureF,DewpointF,PressureIn,WindDirection,WindDirectionDegrees,WindSpeedMPH,WindSpeedGustMPH,Humidity,HourlyPrecipIn,Conditions,Clouds,dailyrainin,SoftwareType,DateUTC
2013-11-27 00:00:00,58.5,56.0,29.62,SE,142,8.0,27.0,91,0.00,,,0.00,weatherlink.com 1.10,2013-11-27 05:00:00,
2013-11-27 00:15:00,59.2,57.0,29.60,SSE,153,13.0,27.0,91,0.00,,,0.00,weatherlink.com 1.10,2013-11-27 05:15:00,
2013-11-27 00:30:00,60.1,58.0,29.58,SE,143,21.0,29.0,91,0.00,,,0.00,weatherlink.com 1.10,2013-11-27 05:30:00,
2013-11-27 00:45:00,60.9,58.0,29.56,SE,146,26.0,29.0,91,0.00,,,0.00,weatherlink.com 1.10,2013-11-27 05:45:00,
2013-11-27 01:00:00,61.2,59.0,29.57,SSE,154,16.0,32.0,91,0.00,,,0.00,weatherlink.com 1.10,2013-11-27 06:00:00,
2013-11-27 01:15:00,60.9,58.0,29.55,SSW,195,14.0,30.0,91,0.00,,,0.00,weatherlink.com 1.10,2013-11-27 06:15:00,
2013-11-27 01:30:00,61.0,58.0,29.52,SSW,205,11.0,27.0,91,0.00,,,0.00,weatherlink.com 1.10,2013-11-27 06:30:00,
2013-11-27 01:45:00,60.8,58.0,29.51,SSE,156,17.0,26.0,91,0.00,,,0.00,weatherlink.com 1.10,2013-11-27 06:45:00,
2013-11-27 02:00:00,60.8,58.0,29.51,SSE,164,13.0,25.0,91,0.00,,,0.00,weatherlink.com 1.10,2013-11-27 07:00:00,
2013-11-27 02:15:00,60.9,58.0,29.49,SE,140,17.0,30.0,91,0.00,,,0.00,weatherlink.com 1.10,2013-11-27 07:15:00,
2013-11-27 02:30:00,61.3,59.0,29.48,SSE,154,19.0,27.0,91,0.00,,,0.00,weatherlink.com 1.10,2013-11-27 07:30:00,
2013-11-27 02:45:00,62.2,60.0,29.47,South,169,22.0,30.0,91,0.00,,,0.00,weatherlink.com 1.10,2013-11-27 07:45:00,
2013-11-27 03:00:00,62.8,60.0,29.45,SSE,158,17.0,34.0,91,0.00,,,0.00,weatherlink.com 1.10,2013-11-27 08:00:00,
2013-11-27 03:15:00,62.6,60.0,29.44,South,172,22.0,29.0,91,0.00,,,0.00,weatherlink.com 1.10,2013-11-27 08:15:00,
2013-11-27 03:30:00,62.9,60.0,29.44,South,176,15.0,29.0,91,0.00,,,0.00,weatherlink.com 1.10,2013-11-27 08:30:00,
2013-11-27 03:45:00,62.9,60.0,29.42,SSW,210,13.0,24.0,91,0.00,,,0.00,weatherlink.com 1.10,2013-11-27 08:45:00,
2013-11-27 04:00:00,62.8,60.0,29.41,SW,220,14.0,30.0,91,0.00,,,0.00,weatherlink.com 1.10,2013-11-27 09:00:00,
2013-11-27 04:16:00,62.7,60.0,29.40,SSW,195,10.0,27.0,91,0.00,,,0.00,weatherlink.com 1.10,2013-11-27 09:16:00,
2013-11-27 04:31:00,62.9,60.0,29.39,SSW,210,14.0,25.0,91,0.00,,,0.00,weatherlink.com 1.10,2013-11-27 09:31:00,
2013-11-27 04:46:00,63.0,60.0,29.39,South,176,12.0,24.0,91,0.00,,,0.00,weatherlink.com 1.10,2013-11-27 09:46:00,
2013-11-27 05:01:00,63.0,60.0,29.39,SSW,198,10.0,17.0,91,0.00,,,0.00,weatherlink.com 1.10,2013-11-27 10:01:00,
2013-11-27 05:16:00,61.5,59.0,29.42,SSW,207,8.0,22.0,91,0.00,,,0.00,weatherlink.com 1.10,2013-11-27 10:16:00,
2013-11-27 05:31:00,58.8,56.0,29.41,West,277,5.0,12.0,91,0.00,,,0.00,weatherlink.com 1.10,2013-11-27 10:31:00,
2013-11-27 05:46:00,58.0,55.0,29.41,SW,229,1.0,5.0,91,0.00,,,0.00,weatherlink.com 1.10,2013-11-27 10:46:00,
2013-11-27 06:01:00,57.7,55.0,29.41,SW,236,3.0,5.0,91,0.00,,,0.00,weatherlink.com 1.10,2013-11-27 11:01:00,
2013-11-27 06:16:00,57.3,55.0,29.42,WSW,257,3.0,7.0,91,0.00,,,0.00,weatherlink.com 1.10,2013-11-27 11:16:00,
2013-11-27 06:31:00,56.7,54.0,29.42,WSW,238,3.0,8.0,91,0.00,,,0.00,weatherlink.com 1.10,2013-11-27 11:31:00,
2013-11-27 06:46:00,55.8,54.0,29.43,WNW,288,4.0,11.0,92,0.00,,,0.00,weatherlink.com 1.10,2013-11-27 11:46:00,
2013-11-27 07:01:00,53.2,51.0,29.44,WNW,296,5.0,15.0,91,0.00,,,0.00,weatherlink.com 1.10,2013-11-27 12:01:00,
2013-11-27 07:16:00,50.7,49.0,29.44,WNW,283,5.0,7.0,92,0.00,,,0.00,weatherlink.com 1.10,2013-11-27 12:16:00,
2013-11-27 07:31:00,49.6,47.0,29.43,WNW,288,3.0,9.0,92,0.00,,,0.00,weatherlink.com 1.10,2013-11-27 12:31:00,
2013-11-27 07:46:00,48.8,47.0,29.44,NW,312,5.0,10.0,92,0.00,,,0.00,weatherlink.com 1.10,2013-11-27 12:46:00,
2013-11-27 08:01:00,47.9,46.0,29.45,WNW,283,4.0,6.0,92,0.00,,,0.00,weatherlink.com 1.10,2013-11-27 13:01:00,
2013-11-27 08:16:00,47.5,45.0,29.45,WNW,295,3.0,12.0,92,0.00,,,0.00,weatherlink.com 1.10,2013-11-27 13:16:00,
2013-11-27 08:31:00,47.1,45.0,29.44,WNW,297,2.0,6.0,92,0.00,,,0.00,weatherlink.com 1.10,2013-11-27 13:31:00,
2013-11-27 08:46:00,46.6,44.0,29.44,WNW,296,4.0,5.0,92,0.00,,,0.00,weatherlink.com 1.10,2013-11-27 13:46:00,
2013-11-27 09:02:00,46.2,44.0,29.44,WNW,288,3.0,7.0,92,0.00,,,0.00,weatherlink.com 1.10,2013-11-27 14:02:00,
2013-11-27 09:16:00,45.7,44.0,29.42,WNW,301,4.0,6.0,92,0.00,,,0.00,weatherlink.com 1.10,2013-11-27 14:16:00,
2013-11-27 09:31:00,45.3,43.0,29.45,West,276,4.0,11.0,92,0.00,,,0.00,weatherlink.com 1.10,2013-11-27 14:31:00,
2013-11-27 09:46:00,44.8,43.0,29.42,West,277,6.0,8.0,92,0.00,,,0.00,weatherlink.com 1.10,2013-11-27 14:46:00,
2013-11-27 10:01:00,44.5,42.0,29.44,NW,312,1.0,8.0,92,0.00,,,0.00,weatherlink.com 1.10,2013-11-27 15:01:00,
2013-11-27 10:16:00,44.1,42.0,29.43,NNW,330,3.0,11.0,92,0.00,,,0.00,weatherlink.com 1.10,2013-11-27 15:16:00,
2013-11-27 10:32:00,43.8,42.0,29.43,West,277,1.0,10.0,92,0.00,,,0.00,weatherlink.com 1.10,2013-11-27 15:32:00,
2013-11-27 10:47:00,43.7,42.0,29.44,West,270,6.0,11.0,92,0.00,,,0.00,weatherlink.com 1.10,2013-11-27 15:47:00,
2013-11-27 11:02:00,43.5,41.0,29.44,West,269,4.0,12.0,92,0.00,,,0.00,weatherlink.com 1.10,2013-11-27 16:02:00,
2013-11-27 11:17:00,43.2,41.0,29.43,West,273,6.0,9.0,92,0.00,,,0.00,weatherlink.com 1.10,2013-11-27 16:17:00,
2013-11-27 11:32:00,43.2,41.0,29.44,West,274,3.0,9.0,92,0.00,,,0.00,weatherlink.com 1.10,2013-11-27 16:32:00,
2013-11-27 11:47:00,42.9,41.0,29.42,NNW,345,4.0,13.0,92,0.00,,,0.00,weatherlink.com 1.10,2013-11-27 16:47:00,
2013-11-27 12:02:00,42.5,40.0,29.40,WNW,287,7.0,16.0,92,0.00,,,0.00,weatherlink.com 1.10,2013-11-27 17:02:00,
2013-11-27 12:17:00,42.2,40.0,29.40,NW,309,5.0,11.0,92,0.00,,,0.00,weatherlink.com 1.10,2013-11-27 17:17:00,
2013-11-27 12:32:00,41.9,40.0,29.39,WNW,300,8.0,12.0,92,0.00,,,0.00,weatherlink.com 1.10,2013-11-27 17:32:00,
2013-11-27 13:02:00,41.5,39.0,29.42,West,274,5.0,8.0,92,0.00,,,0.00,weatherlink.com 1.10,2013-11-27 18:02:00,
2013-11-27 13:17:00,41.2,39.0,29.39,NW,311,10.0,11.0,92,0.00,,,0.00,weatherlink.com 1.10,2013-11-27 18:17:00,
2013-11-27 13:32:00,40.9,39.0,29.39,NW,318,4.0,14.0,93,0.00,,,0.00,weatherlink.com 1.10,2013-11-27 18:32:00,
2013-11-27 13:47:00,40.5,38.0,29.41,WNW,302,2.0,14.0,92,0.00,,,0.00,weatherlink.com 1.10,2013-11-27 18:47:00,
2013-11-27 14:02:00,39.9,38.0,29.38,WNW,292,8.0,17.0,92,0.00,,,0.00,weatherlink.com 1.10,2013-11-27 19:02:00,
2013-11-27 14:17:00,39.4,37.0,29.39,North,349,6.0,16.0,92,0.00,,,0.00,weatherlink.com 1.10,2013-11-27 19:17:00,
2013-11-27 14:32:00,39.3,38.0,29.44,WNW,297,7.0,11.0,93,0.00,,,0.00,weatherlink.com 1.10,2013-11-27 19:32:00,
2013-11-27 14:47:00,39.0,37.0,29.43,NW,316,5.0,13.0,92,0.00,,,0.00,weatherlink.com 1.10,2013-11-27 19:47:00,
2013-11-27 15:02:00,38.8,37.0,29.41,NW,318,2.0,8.0,93,0.00,,,0.00,weatherlink.com 1.10,2013-11-27 20:02:00,
2013-11-27 15:17:00,38.7,37.0,29.39,NW,318,5.0,14.0,93,0.00,,,0.00,weatherlink.com 1.10,2013-11-27 20:17:00,
2013-11-27 15:32:00,38.3,37.0,29.37,NW,317,5.0,15.0,93,0.00,,,0.00,weatherlink.com 1.10,2013-11-27 20:32:00,
2013-11-27 15:47:00,38.1,36.0,29.41,North,353,9.0,12.0,93,0.00,,,0.00,weatherlink.com 1.10,2013-11-27 20:47:00,
2013-11-27 16:02:00,38.1,36.0,29.45,WNW,298,5.0,14.0,93,0.00,,,0.00,weatherlink.com 1.10,2013-11-27 21:02:00,
2013-11-27 16:17:00,38.2,36.0,29.48,WNW,297,7.0,13.0,93,0.00,,,0.00,weatherlink.com 1.10,2013-11-27 21:17:00,
2013-11-27 16:32:00,37.9,36.0,29.47,West,276,10.0,22.0,92,0.00,,,0.00,weatherlink.com 1.10,2013-11-27 21:32:00,
2013-11-27 16:47:00,37.0,35.0,29.49,West,274,10.0,15.0,92,0.00,,,0.00,weatherlink.com 1.10,2013-11-27 21:47:00,
2013-11-27 17:02:00,36.5,35.0,29.52,WNW,291,7.0,17.0,93,0.00,,,0.00,weatherlink.com 1.10,2013-11-27 22:02:00,
2013-11-27 17:17:00,36.3,35.0,29.53,WNW,295,9.0,16.0,93,0.00,,,0.00,weatherlink.com 1.10,2013-11-27 22:17:00,
2013-11-27 17:33:00,36.0,34.0,29.55,NW,312,3.0,14.0,93,0.00,,,0.00,weatherlink.com 1.10,2013-11-27 22:33:00,
2013-11-27 17:48:00,35.7,34.0,29.57,NW,304,7.0,18.0,93,0.00,,,0.00,weatherlink.com 1.10,2013-11-27 22:48:00,
2013-11-27 18:03:00,35.7,34.0,29.58,NNW,340,9.0,16.0,93,0.00,,,0.00,weatherlink.com 1.10,2013-11-27 23:03:00,
2013-11-27 18:18:00,35.5,34.0,29.59,WSW,257,6.0,12.0,93,0.00,,,0.00,weatherlink.com 1.10,2013-11-27 23:18:00,
2013-11-27 18:33:00,35.4,34.0,29.59,WNW,300,5.0,13.0,93,0.00,,,0.00,weatherlink.com 1.10,2013-11-27 23:33:00,
2013-11-27 18:48:00,35.3,33.0,29.59,West,281,5.0,12.0,92,0.00,,,0.00,weatherlink.com 1.10,2013-11-27 23:48:00,
2013-11-27 19:03:00,35.3,33.0,29.61,WNW,291,6.0,14.0,92,0.00,,,0.00,weatherlink.com 1.10,2013-11-28 00:03:00,
2013-11-27 19:18:00,35.6,34.0,29.62,NW,310,3.0,13.0,92,0.00,,,0.00,weatherlink.com 1.10,2013-11-28 00:18:00,
2013-11-27 19:33:00,35.7,33.0,29.64,WNW,283,9.0,15.0,91,0.00,,,0.00,weatherlink.com 1.10,2013-11-28 00:33:00,
2013-11-27 19:48:00,35.9,33.0,29.64,WNW,298,11.0,13.0,90,0.00,,,0.00,weatherlink.com 1.10,2013-11-28 00:48:00,
2013-11-27 20:03:00,36.0,33.0,29.65,WNW,296,7.0,10.0,90,0.00,,,0.00,weatherlink.com 1.10,2013-11-28 01:03:00,
2013-11-27 20:18:00,36.2,33.0,29.66,WNW,291,8.0,12.0,88,0.00,,,0.00,weatherlink.com 1.10,2013-11-28 01:18:00,
2013-11-27 20:33:00,36.3,32.0,29.68,WNW,284,9.0,24.0,84,0.00,,,0.00,weatherlink.com 1.10,2013-11-28 01:33:00,
2013-11-27 20:48:00,36.2,32.0,29.68,NW,306,4.0,16.0,83,0.00,,,0.00,weatherlink.com 1.10,2013-11-28 01:48:00,
2013-11-27 21:03:00,36.2,31.0,29.70,WNW,285,6.0,19.0,80,0.00,,,0.00,weatherlink.com 1.10,2013-11-28 02:03:00,
2013-11-27 21:18:00,35.9,31.0,29.71,NW,309,8.0,13.0,81,0.00,,,0.00,weatherlink.com 1.10,2013-11-28 02:18:00,
2013-11-27 21:33:00,35.6,27.0,29.73,WNW,295,9.0,19.0,72,0.00,,,0.00,weatherlink.com 1.10,2013-11-28 02:33:00,
2013-11-27 21:48:00,35.2,27.0,29.74,WNW,300,4.0,16.0,71,0.00,,,0.00,weatherlink.com 1.10,2013-11-28 02:48:00,
2013-11-27 22:03:00,34.6,26.0,29.75,NW,311,6.0,10.0,72,0.00,,,0.00,weatherlink.com 1.10,2013-11-28 03:03:00,
2013-11-27 22:18:00,34.5,26.0,29.77,WSW,257,5.0,14.0,71,0.00,,,0.00,weatherlink.com 1.10,2013-11-28 03:18:00,
2013-11-27 22:33:00,34.7,26.0,29.78,NNW,342,6.0,17.0,71,0.00,,,0.00,weatherlink.com 1.10,2013-11-28 03:33:00,
2013-11-27 22:48:00,34.6,26.0,29.79,NW,307,10.0,17.0,70,0.00,,,0.00,weatherlink.com 1.10,2013-11-28 03:48:00,
2013-11-27 23:03:00,33.8,22.0,29.81,West,281,10.0,21.0,63,0.00,,,0.00,weatherlink.com 1.10,2013-11-28 04:03:00,
2013-11-27 23:18:00,33.1,22.0,29.82,West,263,3.0,15.0,65,0.00,,,0.00,weatherlink.com 1.10,2013-11-28 04:18:00,
2013-11-27 23:33:00,32.5,21.0,29.84,WNW,284,11.0,22.0,63,0.00,,,0.00,weatherlink.com 1.10,2013-11-28 04:33:00,
2013-11-27 23:49:00,32.0,21.0,29.86,SW,234,4.0,15.0,65,0.00,,,0.00,weatherlink.com 1.10,2013-11-28 04:49:00,